• Join FlightAware (Why Join?)
  • Login
  • US Flag 
03:05PM EST


 

Airport Tracker/Info


-or-


 

Live Flight TrackerFlight Track Log ✈ LOF3416 ✈ 28-Apr-2013 ✈ KIAD - KDAY

Flight Track Log - Related Links

Times and Time Zones

All times are in EDT time to prevent confusion due to time zone crossing. See the LOF3416 flight status page for this flight to view local times or setup timezone preferences in your user account.

Time Position Orientation Groundspeed Altitude Reporting Facility
EDT Latitude Longitude Course Direction KTS MPH feet Rate Location/Type
10:29PM 38.9167 -77.4500 229° Southwest 163 188 1,700  Level Potomac TRACON
10:30PM 38.8833 -77.5000 229° Southwest 206 237 3,700 2,095 Climbing Potomac TRACON
10:31PM 38.8167 -77.5500 210° Southwest 230 265 6,100 2,250 Climbing Potomac TRACON
10:32PM 38.7833 -77.6000 229° Southwest 245 282 8,200 2,158 Climbing Potomac TRACON
10:33PM 38.7667 -77.6833 256° West 249 287 10,200 1,778 Climbing Potomac TRACON
10:33PM 38.7797 -77.7272 291° West 259 298 10,600 1,317 Climbing Washington Center
10:34PM 38.8178 -77.8111 300° West 298 343 12,000 1,311 Climbing Washington Center
10:35PM 38.8639 -77.9111 301° West 336 387 13,200 1,220 Climbing Washington Center
10:36PM 38.8994 -78.0189 293° West 336 387 14,400 1,339 Climbing Washington Center
10:37PM 38.9344 -78.1322 292° West 336 387 15,900 1,388 Climbing Washington Center
10:38PM 38.9614 -78.2453 287° West 336 387 17,200 1,169 Climbing Washington Center
10:39PM 38.9647 -78.3656 272° West 329 379 18,200 1,109 Climbing Washington Center
10:40PM 38.9681 -78.4883 272° West 341 392 19,400 1,300 Climbing Washington Center
10:41PM 38.9714 -78.6142 272° West 346 398 20,800 1,587 Climbing Washington Center
10:42PM 38.9767 -78.7344 273° West 346 398 22,600 1,426 Climbing Washington Center
10:43PM 38.9797 -78.8547 272° West 346 398 23,700 1,041 Climbing Washington Center
10:44PM 38.9844 -78.9806 273° West 351 404 24,700 1,059 Climbing Washington Center
10:45PM 38.9853 -79.1033 271° West 351 404 25,800 1,160 Climbing Washington Center
10:46PM 38.9897 -79.2264 273° West 351 404 27,000 1,050 Climbing Washington Center
10:47PM 38.9950 -79.3308 274° West 346 398 27,900 500 Climbing Washington Center
10:48PM 38.9953 -79.4564 270° West 346 398 28,000 50 Climbing Washington Center
10:49PM 38.9986 -79.6036 272° West 365 420 28,000  Level Washington Center
10:50PM 39.0006 -79.7344 271° West 376 433 28,000  Level Washington Center
10:51PM 39.0019 -79.8681 271° West 376 433 28,000  Level Washington Center
10:53PM 39.0050 -80.1406 271° West 382 440 28,000  Level Indianapolis Center
10:54PM 39.0064 -80.2803 271° West 390 449 28,000  Level Indianapolis Center
10:55PM 39.0086 -80.4192 271° West 389 448 28,000  Level Indianapolis Center
10:56PM 39.0108 -80.5525 271° West 378 435 28,000 446 Level Indianapolis Center
10:57PM 39.0128 -80.6775 271° West 354 407 28,900 984 Climbing Indianapolis Center
10:58PM 39.0133 -80.7972 270° West 336 387 30,000 541 Climbing Indianapolis Center
10:59PM 39.0558 -80.9150 295° West 367 422 30,000  Level Indianapolis Center
11:00PM 39.1061 -81.0350 298° West 382 440 30,000  Level Indianapolis Center
11:01PM 39.1694 -81.1508 305° West 405 466 30,000  Level Indianapolis Center
11:02PM 39.2433 -81.2558 312° West 399 459 30,000  Level Indianapolis Center
11:03PM 39.3172 -81.3619 312° West 399 459 30,000  Level Indianapolis Center
11:04PM 39.4036 -81.4878 312° West 393 452 30,000  Level Indianapolis Center
11:05PM 39.4769 -81.5922 312° West 393 452 30,000  Level Indianapolis Center
11:06PM 39.5517 -81.7011 312° West 400 460 30,000  Level Indianapolis Center
11:07PM 39.6286 -81.8122 312° West 410 472 30,000  Level Indianapolis Center
11:08PM 39.7078 -81.9303 311° West 417 480 30,000  Level Indianapolis Center
11:09PM 39.7864 -82.0456 312° West 421 484 30,000  Level Indianapolis Center
11:10PM 39.8658 -82.1617 312° West 426 490 30,000  Level Indianapolis Center
11:11PM 39.9444 -82.2789 311° West 428 493 30,000 -590 Level Indianapolis Center
11:12PM 40.0206 -82.3931 311° West 416 479 28,800 -1,339 Descending Indianapolis Center
11:13PM 40.0956 -82.5050 311° West 410 472 27,300 -1,636 Descending Indianapolis Center
11:14PM 40.1533 -82.6386 300° West 431 496 25,500 -1,918 Descending Indianapolis Center
11:15PM 40.1611 -82.7903 274° West 419 482 23,400 -2,033 Descending Indianapolis Center
11:16PM 40.1681 -82.9372 274° West 406 467 21,400 -2,083 Descending Indianapolis Center
11:17PM 40.1486 -83.0775 260° West 395 455 19,200 -2,361 Descending Indianapolis Center
11:18PM 40.1256 -83.2081 257° West 372 428 16,600 -2,541 Descending Indianapolis Center
11:19PM 40.1142 -83.2636 255° West 360 414 15,600 -2,262 Descending Indianapolis Center
11:20PM 40.1031 -83.3336 258° West 357 411 14,300 -2,041 Descending Indianapolis Center
11:21PM 40.0806 -83.4550 256° West 347 399 12,300 -2,051 Descending Indianapolis Center
11:21PM 40.0703 -83.4983 253° West 343 395 11,600 -1,279 Descending Indianapolis Center
11:22PM 40.0547 -83.5728 255° West 339 390 11,000 -600 Descending Indianapolis Center
11:22PM 40.0450 -83.6150 253° West 335 386 11,000  Level Indianapolis Center
11:23PM 40.0353 -83.6894 260° West 331 381 11,000 -350 Level Indianapolis Center
11:24PM 40.0500 -83.7906 281° West 284 327 10,400 -1,438 Descending Indianapolis Center
11:25PM 40.0939 -83.8714 305° West 275 316 8,100 -2,508 Descending Indianapolis Center
11:26PM 40.0561 -83.9453 236° Southwest 260 299 5,300 -2,734 Descending Indianapolis Center
11:26PM 40.0414 -83.9717 234° Southwest 239 275 4,500 -1,279 Descending Indianapolis Center
11:27PM 40.0181 -84.0131 234° Southwest 242 278 4,000 -500 Descending Indianapolis Center
11:27PM 40.0047 -84.0378 235° Southwest 221 254 4,000  Level Indianapolis Center